Location: Seattle
(47.6064°N, 122.3308°W)
Time: 15:04:57
(UTC-08:00)

S-56A Canister/Altair - Pass Details

Date: 04 October 2022
Orbit: 638 x 2494 km, 38.9° (Epoch: 03 December)

Event Time Altitude Azimuth Distance (km) Brightness Sun altitude
Exits shadow 05:51:19 19° 254° (WSW) 2,836 9.8 -14.5°
Maximum altitude 05:56:29 36° 202° (SSW) 1,717 9.0 -13.6°
Drops below altitude 10° 06:02:00 10° 137° (SE) 2,561 10.7 -12.7°
Sets 06:04:20 0° 128° (SE) 3,326 11.5 -12.3°
